TimeEDT,TemperatureF,Dew PointF,Humidity,Sea Level PressureIn,VisibilityMPH,Wind Direction,Wind SpeedMPH,Gust SpeedMPH,PrecipitationIn,Events,Conditions,WindDirDegrees,DateUTC
12:15 AM,69.8,68.4,95,30.15,10.0,Calm,Calm,-,N/A,,Scattered Clouds,0,2013-08-22 04:15:00
12:35 AM,70.2,68.9,96,30.15,10.0,Calm,Calm,-,N/A,,Clear,0,2013-08-22 04:35:00
12:55 AM,68.9,67.5,95,30.14,7.0,Calm,Calm,-,N/A,,Scattered Clouds,0,2013-08-22 04:55:00
1:15 AM,68.9,67.6,96,30.14,1.8,Calm,Calm,-,N/A,,Overcast,0,2013-08-22 05:15:00
1:35 AM,69.1,68.0,96,30.14,1.2,Calm,Calm,-,N/A,,Overcast,0,2013-08-22 05:35:00
1:55 AM,69.8,68.9,97,30.14,0.8,Calm,Calm,-,N/A,,Overcast,0,2013-08-22 05:55:00
2:15 AM,69.8,68.9,97,30.14,2.0,Calm,Calm,-,N/A,,Overcast,0,2013-08-22 06:15:00
2:35 AM,69.4,68.5,97,30.14,0.8,Calm,Calm,-,N/A,,Overcast,0,2013-08-22 06:35:00
2:55 AM,69.6,68.9,98,30.15,0.8,Calm,Calm,-,N/A,,Overcast,0,2013-08-22 06:55:00
3:15 AM,69.6,68.9,98,30.14,0.2,Calm,Calm,-,N/A,Fog,Fog,0,2013-08-22 07:15:00
3:35 AM,69.4,68.9,98,30.14,0.2,Calm,Calm,-,N/A,Fog,Fog,0,2013-08-22 07:35:00
3:55 AM,69.8,69.1,98,30.14,1.0,Calm,Calm,-,N/A,,Overcast,0,2013-08-22 07:55:00
4:15 AM,69.3,68.5,98,30.13,0.5,Calm,Calm,-,N/A,Fog,Fog,0,2013-08-22 08:15:00
4:35 AM,69.1,68.4,98,30.13,0.5,Calm,Calm,-,N/A,Fog,Fog,0,2013-08-22 08:35:00
4:55 AM,68.9,68.4,98,30.13,0.5,Calm,Calm,-,N/A,Fog,Fog,0,2013-08-22 08:55:00
5:15 AM,69.1,68.5,98,30.12,1.0,Calm,Calm,-,N/A,,Overcast,0,2013-08-22 09:15:00
5:35 AM,68.9,68.4,98,30.12,1.0,Calm,Calm,-,N/A,,Overcast,0,2013-08-22 09:35:00
5:55 AM,68.9,68.2,98,30.12,5.0,Calm,Calm,-,N/A,,Mostly Cloudy,0,2013-08-22 09:55:00
6:15 AM,68.2,67.6,98,30.12,1.2,Calm,Calm,-,N/A,,Scattered Clouds,0,2013-08-22 10:15:00
6:35 AM,68.0,67.5,98,30.12,1.2,Calm,Calm,-,N/A,,Overcast,0,2013-08-22 10:35:00
6:55 AM,69.1,68.5,98,30.13,4.0,West,3.5,-,N/A,,Overcast,260,2013-08-22 10:55:00
7:15 AM,68.9,68.4,98,30.14,3.0,WSW,3.5,-,N/A,,Overcast,240,2013-08-22 11:15:00
7:35 AM,69.1,68.5,98,30.14,2.5,WSW,3.5,-,N/A,,Overcast,250,2013-08-22 11:35:00
7:55 AM,69.3,68.7,98,30.14,5.0,WSW,3.5,-,N/A,,Overcast,240,2013-08-22 11:55:00
8:15 AM,69.6,68.9,98,30.14,4.0,WSW,4.6,-,N/A,,Overcast,240,2013-08-22 12:15:00
8:35 AM,69.8,69.3,98,30.14,7.0,Calm,Calm,-,N/A,,Scattered Clouds,0,2013-08-22 12:35:00
8:55 AM,70.7,70.0,98,30.14,7.0,SSW,3.5,-,N/A,,Clear,210,2013-08-22 12:55:00
9:15 AM,71.2,70.7,98,30.14,10.0,WSW,3.5,-,N/A,,Clear,240,2013-08-22 13:15:00
9:35 AM,71.8,70.9,97,30.14,10.0,SW,3.5,-,N/A,,Clear,230,2013-08-22 13:35:00
9:55 AM,73.2,71.4,94,30.14,10.0,WSW,3.5,-,N/A,,Clear,250,2013-08-22 13:55:00
10:15 AM,75.4,71.1,86,30.14,10.0,WNW,4.6,-,N/A,,Clear,290,2013-08-22 14:15:00
10:35 AM,77.2,70.9,81,30.14,10.0,West,3.5,-,N/A,,Clear,270,2013-08-22 14:35:00
10:55 AM,78.4,70.9,77,30.13,10.0,Calm,Calm,-,N/A,,Scattered Clouds,0,2013-08-22 14:55:00
11:15 AM,80.6,70.3,71,30.13,10.0,West,6.9,-,N/A,,Scattered Clouds,280,2013-08-22 15:15:00
11:35 AM,80.4,70.2,71,30.13,10.0,West,8.1,-,N/A,,Scattered Clouds,260,2013-08-22 15:35:00
11:55 AM,81.9,70.7,69,30.12,10.0,SW,8.1,-,N/A,,Scattered Clouds,220,2013-08-22 15:55:00
12:15 PM,82.0,70.2,67,30.12,10.0,SW,8.1,-,N/A,,Scattered Clouds,220,2013-08-22 16:15:00
12:35 PM,82.8,68.7,62,30.12,10.0,West,5.8,-,N/A,,Clear,260,2013-08-22 16:35:00
12:55 PM,83.7,69.8,63,30.11,10.0,West,6.9,-,N/A,,Scattered Clouds,260,2013-08-22 16:55:00
1:15 PM,82.2,69.1,64,30.10,10.0,West,4.6,-,N/A,,Scattered Clouds,260,2013-08-22 17:15:00
1:35 PM,84.2,67.5,57,30.10,10.0,West,3.5,-,N/A,,Scattered Clouds,280,2013-08-22 17:35:00
1:55 PM,84.4,67.1,56,30.09,10.0,Calm,Calm,-,N/A,,Scattered Clouds,0,2013-08-22 17:55:00
2:15 PM,85.1,66.9,54,30.08,10.0,Calm,Calm,-,N/A,,Clear,0,2013-08-22 18:15:00
2:35 PM,85.1,68.0,56,30.07,10.0,WNW,3.5,-,N/A,,Clear,290,2013-08-22 18:35:00
2:55 PM,84.7,67.8,57,30.06,10.0,Calm,Calm,-,N/A,,Scattered Clouds,0,2013-08-22 18:55:00
3:15 PM,85.6,66.7,53,30.05,10.0,Calm,Calm,-,N/A,,Scattered Clouds,0,2013-08-22 19:15:00
3:35 PM,86.2,67.5,53,30.04,10.0,SW,4.6,-,N/A,,Scattered Clouds,230,2013-08-22 19:35:00
3:55 PM,86.2,66.4,51,30.03,10.0,NW,4.6,-,N/A,,Scattered Clouds,310,2013-08-22 19:55:00
4:15 PM,86.4,65.8,50,30.02,10.0,NW,5.8,-,N/A,,Clear,310,2013-08-22 20:15:00
4:35 PM,86.4,65.3,49,30.02,10.0,WNW,3.5,-,N/A,,Scattered Clouds,290,2013-08-22 20:35:00
4:55 PM,86.5,66.6,51,30.01,10.0,Calm,Calm,-,N/A,,Scattered Clouds,0,2013-08-22 20:55:00
5:15 PM,86.5,65.3,49,30.01,10.0,West,3.5,-,N/A,,Scattered Clouds,260,2013-08-22 21:15:00
5:35 PM,86.5,65.8,50,30.01,10.0,Calm,Calm,-,N/A,,Clear,0,2013-08-22 21:35:00
5:55 PM,86.0,65.3,50,30.01,10.0,Calm,Calm,-,N/A,,Clear,0,2013-08-22 21:55:00
6:15 PM,85.8,66.9,53,30.01,10.0,Calm,Calm,-,N/A,,Clear,0,2013-08-22 22:15:00
6:35 PM,85.1,68.0,56,30.01,10.0,WSW,3.5,-,N/A,,Scattered Clouds,250,2013-08-22 22:35:00
6:55 PM,84.2,68.5,59,30.01,10.0,Calm,Calm,-,N/A,,Scattered Clouds,0,2013-08-22 22:55:00
7:15 PM,82.9,70.7,66,30.01,10.0,Calm,Calm,-,N/A,,Clear,0,2013-08-22 23:15:00
7:35 PM,77.4,72.9,86,30.01,10.0,Calm,Calm,-,N/A,,Clear,0,2013-08-22 23:35:00
7:55 PM,77.5,72.3,84,30.03,10.0,Calm,Calm,-,N/A,,Clear,0,2013-08-22 23:55:00
8:15 PM,75.6,72.5,90,30.03,10.0,Calm,Calm,-,N/A,,Clear,0,2013-08-23 00:15:00
8:35 PM,74.3,72.0,92,30.03,10.0,Calm,Calm,-,N/A,,Clear,0,2013-08-23 00:35:00
8:55 PM,74.3,72.1,93,30.04,10.0,Calm,Calm,-,N/A,,Clear,0,2013-08-23 00:55:00
9:15 PM,73.4,71.6,94,30.04,10.0,Calm,Calm,-,N/A,,Clear,0,2013-08-23 01:15:00
9:35 PM,73.4,71.6,94,30.05,10.0,Calm,Calm,-,N/A,,Clear,0,2013-08-23 01:35:00
9:55 PM,73.4,71.6,94,30.06,10.0,SSE,3.5,-,N/A,,Clear,150,2013-08-23 01:55:00
10:15 PM,73.2,71.1,93,30.06,10.0,SSE,4.6,-,N/A,,Clear,150,2013-08-23 02:15:00
10:35 PM,73.0,70.5,92,30.05,10.0,SSW,4.6,-,N/A,,Clear,200,2013-08-23 02:35:00
10:55 PM,73.4,70.0,89,30.05,10.0,South,3.5,-,N/A,,Clear,180,2013-08-23 02:55:00
11:15 PM,72.5,69.8,91,30.04,10.0,Calm,Calm,-,N/A,,Clear,0,2013-08-23 03:15:00
11:35 PM,73.4,70.2,90,30.03,10.0,WSW,4.6,-,N/A,,Clear,250,2013-08-23 03:35:00
11:55 PM,73.4,70.0,89,30.03,10.0,Calm,Calm,-,N/A,,Clear,0,2013-08-23 03:55:00